STARLINK-3795, 52264

Orbit data source: Space-Track

STARLINK-3795, 52264 is a payload satellite owned by SpaceX/Seattle (US) in LEO that was launched on Thu, 21 Apr 2022 UTC via an FALCON 9 launch vehicle from the Air Force Eastern Test Range (AFETR). Payload-class satellites include a variety of spacecraft equipped with specific instruments for various scientific and technological missions. These include communications satellites like Starlink; space stations such as the ISS; scientific satellites like the Hubble; Earth observation satellites from companies like Planet Labs, Umbra, and HawkEye 360; GPS; miniature CubeSats for education and research; and military/defense satellites.

Loading next visibility...
Identifier
52264, 2022-041D
Orbit
LEO
Country
Flag of USUS
Related business
Manufacturer
SpaceX/Seattle
Mission
Operational Commercial Communications
Bus & Motor
STARLINK, Unknown motor
Mass
297 kg wet, ~275 kg dry
Launch date (UTC)
2022-04-21 (4 years ago)
Launch vehicle
FALCON 9
Launch site
Air Force Eastern Test Range (AFETR)
Object type
Payload
Rocket body
Debris
Shape & HBR
Box + 1 Pan, 10.1 m
Radar Cross Section
11.087 m², Large (>1 m²)

Expand to show TLE details & history
Last TLE update: 15 hours ago

TLE from 15 hours ago
0 STARLINK-3795
1 52264U 22041D   26206.41293258 -.00001955  00000-0 -46743-4 0  9998
2 52264  53.1583 204.8395 0001052  98.4024 261.7098 15.34399485235231
Epoch: 2026-07-25T09:54Z
TLE epoch observation values (Epoch: 2026-07-25T09:54:37.374Z)
Latitude
-0.00003°
Longitude
113.05818°
Altitude
463.71 km
Speed
7.636 km/s
True Right ascension
13h 39m 21s
True Declination
0° 00' 00"
Sunlit
Object was in daylight at epoch
Visualization orbit readout
Latitude
Unknown
Longitude
Unknown
Altitude
Unknown
Speed
Unknown
Apparent Right ascension
Unknown
Apparent Declination
Unknown
Sunlit
N/A
Visualization observer readout
Local Sidereal Time
14:33:04
Azimuth
Unknown
Elevation
Unknown
Doppler factor
Unknown
Orbital elements
Apogee altitude
463.682 km
Perigee altitude
462.242 km
Semi-major axis
6,841.099 km
Eccentricity
0.00011
Inclination
53.1583°
RAAN
204.8395°
Arg. of periapsis
98.4024°
True anomaly
261.69787°
Mean anomaly
261.7098°
Eccentric anomaly
261.70384°
Mean motion
3.83579 °/min
Orbital period
93.85 mins
BSTAR
-0.000046743
Loading maneuver chart data...
Computing Atmospheric mass density...
Loading historical data...
Loading historical data...
Loading historical data...
Loading historical data...
Loading historical data...
Loading historical data...
Loading historical data...

Documentation

Showing up to 5 results
|